FW2265 Weather Reports


Display with metric or nautical units.
time (UTC)temp
F
wind
direction
speed
MPH
gust
MPH
rain 1hr
in
rain 24hr
in
rain mn
in
humidity
%
barometer
mb
20260903235039 85 241 0.0 1.0 0.00 0.00 0.00 77 1013.1
20260903234135 85 156 0.0 2.0 0.00 0.00 0.00 77 1013.2
20260903233138 86 117 0.0 0.0 0.00 0.00 0.00 76 1013.1
20260903232137 86 206 0.0 2.0 0.00 0.00 0.00 78 1013.1
20260903231138 86 222 0.0 0.0 0.00 0.00 0.00 77 1012.8
20260903230137 86 90 0.0 0.0 0.00 0.00 0.00 78 1013.0
20260903225137 86 45 0.0 0.0 0.00 0.00 0.00 78 1013.1
20260903223236 86 250 0.0 1.0 0.00 0.00 0.00 76 1013.4
20260903222236 86 342 0.0 2.0 0.00 0.00 0.00 77 1013.3
20260903215438 86 178 0.0 0.0 0.00 0.00 0.00 78 1013.5
20260903214437 86 130 0.0 0.0 0.00 0.00 0.00 78 1013.8
20260903213437 86 157 0.0 0.0 0.00 0.00 0.00 77 1014.1
20260903212536 86 225 0.0 0.0 0.00 0.00 0.00 78 1014.3
20260903211538 86 166 0.0 0.0 0.00 0.00 0.00 78 1014.2
20260903210535 85 225 0.0 0.0 0.00 0.00 0.00 77 1014.4
20260903205537 85 22 2.0 4.0 0.00 0.00 0.00 78 1014.2
20260903204536 85 147 0.0 0.0 0.00 0.00 0.00 81 1014.3
20260903203535 84 67 0.0 0.0 0.00 0.00 0.00 83 1014.3
20260903202537 83 107 0.0 0.0 0.00 0.00 0.00 85 1013.8
20260903201635 83 131 0.0 0.0 0.00 0.00 0.00 82 1013.8
20260903200637 85 180 0.0 0.0 0.00 0.00 0.00 74 1014.3
20260903195734 86 213 0.0 2.0 0.00 0.00 0.00 70 1013.9
20260903194735 89 67 0.0 3.0 0.00 0.00 0.00 68 1014.4
20260903193736 92 198 0.0 3.0 0.00 0.00 0.00 66 1014.4
20260903193637 92 228 0.0 1.0 0.00 0.00 0.00 65 1014.5
20260903192636 94 118 0.0 2.0 0.00 0.00 0.00 62 1014.4
20260903191735 93 82 0.0 2.0 0.00 0.00 0.00 64 1013.8
20260903190736 93 342 1.0 3.0 0.00 0.00 0.00 65 1014.1
20260903184836 93 333 1.0 5.0 0.00 0.00 0.00 65 1014.3
20260903181938 93 176 0.0 1.0 0.00 0.00 0.00 63 1014.4
20260903174936 92 93 0.0 0.0 0.00 0.00 0.00 65 1015.2
20260903173934 92 227 1.0 2.0 0.00 0.00 0.00 65 1015.1
20260903172938 92 225 0.0 0.0 0.00 0.00 0.00 63 1015.1
20260903172837 92 225 0.0 0.0 0.00 0.00 0.00 63 1015.2
20260903171836 91 140 0.0 0.0 0.00 0.00 0.00 66 1015.3
20260903170935 90 144 0.0 0.0 0.00 0.00 0.00 68 1015.4
20260903165937 90 202 0.0 1.0 0.00 0.00 0.00 71 1015.5
20260903165035 89 202 0.0 0.0 0.00 0.00 0.00 75 1015.7
20260903164039 88 202 0.0 0.0 0.00 0.00 0.00 78 1015.6
20260903163038 86 202 0.0 1.0 0.00 0.00 0.00 80 1015.5
20260903162036 85 180 0.0 0.0 0.00 0.00 0.00 82 1015.4
20260903161038 84 157 0.0 0.0 0.00 0.00 0.00 82 1015.3
20260903160136 83 135 0.0 0.0 0.00 0.00 0.00 83 1015.3
20260903160045 83 135 0.0 0.0 0.00 0.00 0.00 84 1015.4
20260903155137 82 135 0.0 0.0 0.00 0.00 0.00 84 1015.4
20260903154137 82 135 0.0 0.0 0.00 0.00 0.00 83 1015.4
20260903153139 81 135 0.0 0.0 0.00 0.00 0.00 82 1015.4
20260903152135 81 135 0.0 0.0 0.00 0.00 0.00 83 1015.3
20260903151137 80 135 0.0 0.0 0.00 0.00 0.00 83 1015.4
20260903150234 80 135 0.0 0.0 0.00 0.00 0.00 83 1015.3
20260903145237 80 135 0.0 0.0 0.00 0.00 0.00 83 1015.4
20260903144236 80 135 0.0 0.0 0.00 0.00 0.00 84 1015.4
20260903143239 80 135 0.0 0.0 0.00 0.00 0.00 82 1015.3
20260903140336 80 135 0.0 0.0 0.00 0.00 0.00 83 1015.7
20260903135335 80 180 0.0 0.0 0.00 0.00 0.00 84 1015.6
20260903133334 80 180 0.0 0.0 0.00 0.00 0.00 81 1015.7
20260903133234 80 180 0.0 0.0 0.00 0.00 0.00 81 1015.8
20260903132237 80 180 0.0 0.0 0.00 0.00 0.00 81 1015.7
20260903131336 80 202 0.0 0.0 0.00 0.00 0.00 82 1015.4
20260903130336 81 202 0.0 0.0 0.00 0.00 0.00 81 1015.4
20260903125337 81 218 0.0 0.0 0.00 0.00 0.00 84 1015.3
20260903124337 81 225 0.0 1.0 0.00 0.00 0.00 91 1015.3
20260903123336 81 225 0.0 0.0 0.00 0.00 0.00 92 1015.2
20260903121338 81 225 0.0 0.0 0.00 0.00 0.00 90 1014.6
20260903115337 81 225 0.0 0.0 0.00 0.00 0.00 90 1014.6
20260903115235 82 225 0.0 0.0 0.00 0.00 0.00 89 1014.6
20260903114237 82 225 0.0 0.0 0.00 0.00 0.00 89 1014.7
20260903113236 82 225 0.0 0.0 0.00 0.00 0.00 89 1014.6
20260903112236 83 225 0.0 1.0 0.00 0.00 0.00 87 1014.6
20260903111238 83 225 1.0 3.0 0.00 0.00 0.00 87 1014.3
20260903110237 83 225 0.0 1.0 0.00 0.00 0.00 86 1014.5
20260903105238 83 225 0.0 0.0 0.00 0.00 0.00 87 1014.3
20260903104336 83 225 0.0 1.0 0.00 0.00 0.00 87 1014.3
20260903103337 83 225 0.0 1.0 0.00 0.00 0.00 87 1014.2
20260903102335 83 225 0.0 1.0 0.00 0.00 0.00 86 1014.2
20260903100437 83 225 0.0 0.0 0.00 0.00 0.00 86 1014.1
20260903095437 83 225 0.0 0.0 0.00 0.00 0.00 86 1014.0
20260903094436 83 225 0.0 1.0 0.00 0.00 0.00 85 1014.1
20260903093437 83 225 0.0 0.0 0.00 0.00 0.00 85 1014.3
20260903092436 83 225 0.0 0.0 0.00 0.00 0.00 85 1014.1
20260903091435 83 225 0.0 1.0 0.00 0.00 0.00 86 1014.1
20260903090435 83 225 0.0 0.0 0.00 0.00 0.00 86 1014.3
20260903090337 83 225 0.0 0.0 0.00 0.00 0.00 86 1014.3
20260903085334 83 225 0.0 1.0 0.00 0.00 0.00 85 1014.3
20260903084336 83 225 0.0 1.0 0.00 0.00 0.00 86 1014.3
20260903083436 83 225 0.0 1.0 0.00 0.00 0.00 86 1014.3
20260903083334 83 225 0.0 0.0 0.00 0.00 0.00 86 1014.3
20260903082335 83 225 0.0 1.0 0.00 0.00 0.00 86 1014.2
20260903081434 83 225 0.0 0.0 0.00 0.00 0.00 84 1014.0
20260903080534 83 225 0.0 1.0 0.00 0.00 0.00 85 1014.0
20260903074634 84 225 0.0 0.0 0.00 0.00 0.00 84 1013.8
20260903073638 84 225 0.0 1.0 0.00 0.00 0.00 84 1014.0
20260903072636 84 225 0.0 1.0 0.00 0.00 0.00 84 1014.0
20260903070635 84 227 1.0 2.0 0.00 0.00 0.00 84 1014.1
20260903070536 84 206 1.0 2.0 0.00 0.00 0.00 84 1014.2
20260903065636 84 191 0.0 4.0 0.00 0.00 0.00 84 1014.2
20260903064637 84 225 1.0 1.0 0.00 0.00 0.00 83 1014.4
20260903060735 84 202 0.0 1.0 0.00 0.00 0.00 84 1014.9
20260903054734 84 225 0.0 1.0 0.00 0.00 0.00 83 1015.0
20260903053737 84 225 0.0 0.0 0.00 0.00 0.00 83 1015.1
20260903052735 84 225 0.0 0.0 0.00 0.00 0.00 82 1015.0
20260903051834 84 180 0.0 1.0 0.00 0.00 0.00 82 1014.9
20260903050835 84 202 0.0 0.0 0.00 0.00 0.00 82 1015.0
20260903044843 84 180 0.0 0.0 0.00 0.00 0.00 81 1015.3
20260903043842 84 180 0.0 0.0 0.00 0.00 0.00 81 1015.3
20260903042841 84 225 0.0 0.0 0.00 0.00 0.00 81 1015.4
20260903041842 84 225 0.0 0.0 0.00 0.00 0.00 81 1015.3
20260903035844 85 225 0.0 0.0 0.00 0.00 0.00 81 1015.4
20260903033842 85 225 0.0 0.0 0.00 0.00 0.00 81 1015.0
20260903032842 85 225 0.0 0.0 0.00 0.00 0.00 80 1014.9
20260903031842 85 225 0.0 0.0 0.00 0.00 0.00 81 1015.2
20260903031742 85 202 0.0 0.0 0.00 0.00 0.00 80 1015.2
20260903030743 84 225 0.0 0.0 0.00 0.00 0.00 80 1015.0
20260903025840 85 211 0.0 1.0 0.00 0.00 0.00 81 1014.8
20260903024843 85 163 0.0 0.0 0.00 0.00 0.00 82 1014.6
20260903023941 85 225 0.0 0.0 0.00 0.00 0.00 82 1014.6
20260903022941 85 225 0.0 1.0 0.00 0.00 0.00 82 1014.4
20260903021942 85 180 0.0 2.0 0.00 0.00 0.00 82 1014.0
20260903020943 85 202 0.0 1.0 0.00 0.00 0.00 83 1014.2
20260903015943 85 247 0.0 0.0 0.00 0.00 0.00 82 1014.1
20260903014942 85 181 0.0 0.0 0.00 0.00 0.00 82 1014.1
20260903011043 86 179 0.0 3.0 0.00 0.00 0.00 79 1013.7
20260903010043 86 180 0.0 1.0 0.00 0.00 0.00 78 1013.4
20260903005941 86 200 1.0 5.0 0.00 0.00 0.00 77 1013.4
20260903004942 86 221 0.0 2.0 0.00 0.00 0.00 77 1013.7
20260903003943 86 205 1.0 2.0 0.00 0.00 0.00 76 1013.7
20260903002042 87 121 0.0 0.0 0.00 0.00 0.00 73 1013.4
20260903001042 88 173 1.0 4.0 0.00 0.00 0.00 71 1013.0